Regional Weather Roundup
Issued by NWS

Home | Current Version | Previous Version | Text Only | Print | Product List | Glossary On
Versions: 1 2 3 4 5 6 7 8 9 10 11 12 13 14 15 16 17 18 19 20 21 22 23 24 25 26 27 28 29 30 31 32 33 34 35 36 37 38 39 40 41 42 43 44 45 46 47 48 49 50
000
ASUS43 KLMK 231610
RWRKY
KENTUCKY REGIONAL WEATHER ROUNDUP
NATIONAL WEATHER SERVICE LOUISVILLE KY
1200 PM EDT THU OCT 23 2014

NOTE "FAIR" INDICATES FEW OR NO CLOUDS BELOW 12,000 FEET
WITH NO SIGNIFICANT WEATHER AND/OR OBSTRUCTIONS TO VISIBILITY.

KYZ001>023-026-027-061>063-070>075-231700-
WESTERN AND SOUTH CENTRAL KENTUCKY

CITY           SKY/WX    TMP DP  RH WIND       PRES   REMARKS
PADUCAH        SUNNY     56  44  64 E8        30.23F
HENDERSON      SUNNY    N/A N/A N/A CALM      30.25F
OWENSBORO      SUNNY     55  42  61 S9        30.26R
HOPKINSVILLE   SUNNY     56  44  64 VRB5      30.24R
BOWLING GREEN  SUNNY     55  42  61 E8        30.24F
GLASGOW        SUNNY     55  42  61 CALM      30.23S
$$

KYZ024-025-028>034-038-045-046-053-231700-
NORTH CENTRAL KENTUCKY

CITY           SKY/WX    TMP DP  RH WIND       PRES   REMARKS
LOUISVILLE/SDF MOSUNNY   55  42  61 S7G16     30.24F
LOUISVILLE/LOU SUNNY     54  40  59 VRB3      30.24F
FORT KNOX      SUNNY     53  40  60 VRB6      30.23R
$$

KYZ035>037-039>044-047>052-055>060-089>105-231700-
NORTHEAST KENTUCKY

CITY           SKY/WX    TMP DP  RH WIND       PRES   REMARKS
LEXINGTON      SUNNY     56  40  55 CALM      30.24F
COVINGTON      MOSUNNY   53  39  59 CALM      30.25F
FRANKFORT      SUNNY     53  40  61 SE5       30.23F
$$

KYZ054-064>069-076>088-106>120-231700-
SOUTHEAST KENTUCKY

CITY           SKY/WX    TMP DP  RH WIND       PRES   REMARKS
JACKSON        CLOUDY    52  39  61 CALM      30.24S
LONDON         SUNNY     55  39  54 E7        30.22F
SOMERSET       SUNNY     52  39  62 SE6       30.23F
MIDDLESBORO    MOSUNNY   53  40  60 CALM      30.22F
MONTICELLO     SUNNY     55  41  59 NE8       30.24F
$$




USA.gov is the U.S. government's official web portal to all federal, state and local government web resources and services.